Retour au catalogue

FREGAT DEB

LostUNKNOWN
NORAD 46007·DEBRIS·🇷🇺 Russia

Lancé Jul 18, 2011 depuis Baikonur Cosmodrome

Loading…

Prochains Passages (prochaines 24 heures)

TLE

PériméSource: Space-Track

Époque: Mar 21, 2021, 16:41 UTC

1 46007U 11037HJ  21080.69514157 -.00050679  00000-0 -19342+0 0  9995
2 46007  50.9375 203.2360 1989720 107.7298 274.9274 10.16334945 23178

Suivez FREGAT DEB en temps réel avec AllMySat

Download on the App Store